Content
SEND FEEDBACK

Daily
Averages
Monthly
Summary
India

MALAD, INDIA


Home > Asia > India
Elevation: 46 feet     Latitude: 19 01N     Longitude: 072 51E

WEATHER
 
SELECT A DAY
Number of Records: 242,530;   Date Range: 7/1/96 - 7/28/14
 
SHARE

PRINT THIS DATA

[ ← Previous Day ]
WEATHER ALMANAC - JANUARY 31, 2013
[ Next Day → ]
[ °C ]   °F
Weather ElementAverageHighLow
Temperature74.2 °F82.4 °F (11:40 am)61 °F (5:30 am)
Dewpoint59 °F64.4 °F (12:40 pm)51.8 °F (8:40 pm)
Humidity59.3 %87 % (8:30 am)37 % (5:30 pm)
Barometer29.93 in29.98 in (10:10 am)29.89 in (4:10 am)
Wind Speed4.4 mph10.4 mph (2:10 pm)
Weather ElementAverage
Visibility1.4 mi
Wind DirectionS (178.4 °)

Weather ElementTotal
Precipitation---
Cooling Degree Days6.7 (Base 65)
Growing Degree Days21.7 (Base 50)
Averaged from 48 records on January 31, 2013
WEATHER CONDITIONS BREAKOUT
WIND DIRECTION BREAKOUT
WEATHER BY HOUR - JANUARY 31, 2013
[ °C ]   °F
Local TimeTemperatureDewpointHumidityBarometerVisibilityWind DirectionWind SpeedGust SpeedPrecipitationEventsConditions
12:40 AM71.6 °F60.8 °F69 %29.95 in1.3 miNE (40°)3.5 mphHaze
1:10 AM69.8 °F60.8 °F73 %29.95 in1.2 miCalmHaze
1:40 AM68.0 °F60.8 °F78 %29.92 in1.1 miCalmHaze
2:10 AM68.0 °F60.8 °F78 %29.92 in1.1 miCalmHaze
2:30 AM63.0 °F58.0 °F80 %29.93 in1.0 miCalmHaze
2:40 AM68.0 °F60.8 °F78 %29.92 in1.0 miCalmMist
3:10 AM68.0 °F60.8 °F78 %29.92 in1.0 miCalmMist
4:10 AM66.2 °F60.8 °F83 %29.89 in0.9 miCalmMist
4:40 AM66.2 °F60.8 °F83 %29.92 in0.9 miCalmMist
5:10 AM66.2 °F60.8 °F83 %29.92 in0.9 miVariable2.3 mphMist
5:30 AM61.0 °F58.0 °F85 %29.92 in1.0 miCalmHaze
5:40 AM68.0 °F59.0 °F73 %29.92 in0.9 miNorth (10°)5.8 mphHaze
6:10 AM69.8 °F60.8 °F73 %29.92 in1.2 miNNE (20°)4.6 mphHaze
6:40 AM68.0 °F59.0 °F73 %29.92 in1.2 miVariable2.3 mphHaze
7:40 AM69.8 °F59.0 °F68 %29.92 in0.9 miNNE (30°)5.8 mphHaze
8:10 AM68.0 °F59.0 °F73 %29.95 in1.0 miCalmHaze
8:30 AM62.0 °F59.0 °F87 %29.95 in1.0 miCalmHaze
8:40 AM69.8 °F59.0 °F68 %29.95 in1.0 miCalmSmoke
10:10 AM78.8 °F60.8 °F54 %29.98 in1.2 miWNW (290°)5.8 mphSmoke
10:40 AM78.8 °F59.0 °F51 %29.98 in1.2 miNNW (340°)3.5 mphSmoke
11:10 AM80.6 °F59.0 °F48 %29.95 in1.2 miNorth (350°)4.6 mphSmoke
11:30 AM82.0 °F60.0 °F38 %29.96 in1.0 miWest (270°)3.5 mphSmoke
11:40 AM82.4 °F57.2 °F42 %29.95 in1.4 miNorth (350°)4.6 mphSmoke
12:10 PM82.4 °F59.0 °F45 %29.95 in1.6 miWest (260°)9.2 mphSmoke
12:40 PM82.4 °F64.4 °F54 %29.95 in1.6 miWest (270°)8.1 mphSmoke
1:10 PM82.4 °F64.4 °F54 %29.92 in1.7 miWest (270°)9.2 mphSmoke
2:10 PM80.6 °F62.6 °F54 %29.92 in1.9 miWNW (290°)10.4 mphSmoke
2:30 PM82.0 °F61.0 °F38 %29.91 in1.0 miNNW (340°)9.2 mphSmoke
2:40 PM80.6 °F62.6 °F54 %29.89 in2.2 miWNW (300°)9.2 mphSmoke
3:10 PM80.6 °F60.8 °F51 %29.89 in2.2 miWNW (300°)10.4 mphSmoke
3:40 PM80.6 °F62.6 °F54 %29.89 in2.2 miWNW (300°)10.4 mphSmoke
4:10 PM80.6 °F60.8 °F51 %29.89 in2.2 miWNW (290°)9.2 mphSmoke
4:40 PM80.6 °F59.0 °F48 %29.89 in2.2 miWNW (300°)10.4 mphSmoke
5:10 PM78.8 °F57.2 °F47 %29.89 in2.2 miWNW (290°)8.1 mphSmoke
5:30 PM79.0 °F57.0 °F37 %29.89 in1.0 miNNW (340°)6.9 mphSmoke
5:40 PM78.8 °F57.2 °F47 %29.89 in2.2 miWNW (290°)9.2 mphSmoke
6:10 PM77.0 °F59.0 °F54 %29.89 in2.2 miNW (320°)6.9 mphSmoke
6:40 PM77.0 °F57.2 °F50 %29.92 in2.2 miNW (320°)6.9 mphSmoke
7:10 PM77.0 °F53.6 °F44 %29.92 in2.2 miNW (310°)6.9 mphSmoke
8:10 PM77.0 °F55.4 °F47 %29.95 in1.7 miNW (320°)5.8 mphSmoke
8:30 PM74.0 °F54.0 °F38 %29.95 in1.0 miNorth3.5 mphSmoke
8:40 PM77.0 °F51.8 °F41 %29.95 in1.7 miNNW (330°)5.8 mphSmoke
9:10 PM77.0 °F55.4 °F47 %29.95 in1.4 miNorth (360°)3.5 mphSmoke
10:10 PM77.0 °F55.4 °F47 %29.98 in1.9 miNorth (350°)3.5 mphSmoke
10:40 PM75.2 °F55.4 °F50 %29.95 in1.9 miCalmSmoke
11:10 PM73.4 °F55.4 °F53 %29.95 in1.6 miCalmSmoke
11:30 PM67.0 °F58.0 °F66 %29.95 in1.0 miCalmSmoke
11:40 PM71.6 °F57.2 °F60 %29.95 in1.2 miCalmSmoke
Hourly data recorded from VABB, located miles away from Malad, India







STORIES FROM OUR PARTNERS